Regional Weather Roundup
Issued by NWS

Home | Current Version | Previous Version | Text Only | Print | Product List | Glossary Off
Versions: 1 2 3 4 5 6 7 8 9 10 11 12 13 14 15 16 17 18 19 20 21 22 23 24 25 26 27 28 29 30 31 32 33 34 35 36 37 38 39 40 41 42 43 44 45 46 47 48 49 50

000
ASUS43 KMPX 252001
RWRMN
WEATHER ROUNDUP FOR MINNESOTA
NATIONAL WEATHER SERVICE TWIN CITIES/CHANHASSEN MN
300 PM CDT THU AUG 25 2016


NOTE: "FAIR" INDICATES FEW OR NO CLOUDS BELOW 12,000 FEET WITH NO
SIGNIFICANT WEATHER AND/OR OBSTRUCTIONS TO VISIBILITY. N/A MEANS
CURRENT SKY AND/OR WEATHER CONDITIONS ARE NOT AVAILABLE.

MNZ060>063-068>070-252100-
   Twin Cities Metro

CITY           SKY/WX    TMP DP  RH WIND       PRES   REMARKS
TWIN CITIES    PTSUNNY   73  55  53 W16G22    30.05F
ST PAUL        CLOUDY    73  56  54 W13       30.05F
CRYSTAL        MOSUNNY   73  53  49 W12G25    30.04F
BLAINE         PTSUNNY   73  55  53 W15G22    30.05S
LAKEVILLE      MOSUNNY   70  57  64 W12       30.07S
EDEN PRAIRIE   MOSUNNY   73  56  54 W10G20    30.05F
LAKEVILLE      MOSUNNY   70  57  64 W12       30.07S
SOUTH ST PAUL  PTSUNNY   73  55  53 W9        30.05S
LAKE ELMO      FAIR      72  57  60 W10G16    30.06S
$$
MNZ001>005-007-008-013>017-022>024-027-028-252100-
   Northwest Minnesota

CITY           SKY/WX    TMP DP  RH WIND       PRES   REMARKS
BEMIDJI        CLOUDY    62  54  74 W14       30.01R
HALLOCK        MOSUNNY   70  48  46 N15       30.01F
ROSEAU         MOSUNNY   66  54  63 NW14G20   29.99R
WARROAD        RAIN      61  55  82 NW10        N/A
THIEF RVR FALL CLOUDY    68  50  52 NW16G25   30.03S
CROOKSTON      PTSUNNY   66  48  52 N15G21    30.04S
FOSSTON        CLOUDY    64  54  68 NW14      30.05R
DETROIT LAKES  PTSUNNY   63  54  72 W13       30.07S
MOORHEAD       PTSUNNY   66  52  59 NW8       30.07S
PARK RAPIDS    CLOUDY    64  55  72 W17       30.04S
MAHNOMEN       CLOUDY    64  52  64 NW13G21   30.05R
$$
MNZ006-009>011-018-025>026-252100-
   North Central Minnesota

CITY           SKY/WX    TMP DP  RH WIND       PRES   REMARKS
BAUDETTE       CLOUDY    64  56  75 NW18      29.95R
FLAG ISLAND    PTSUNNY   61  55  82 NW8       29.95S
INTL FALLS     CLOUDY    66  56  70 W13G20    29.90S
WASKISH        CLOUDY    63  57  82 W14G22    29.97R
BIG FORK       MOSUNNY   64  55  72 SW14      29.95F
LONGVILLE      CLOUDY    64  55  72 SW8       30.01S
GRAND RAPIDS   PTSUNNY   66  55  67 W8G17     30.00S
CRANE LAKE     PTSUNNY   63  55  77 W6G16     29.93R
ORR            PTSUNNY   64  55  72 W12       29.91F
COOK           CLOUDY    61  57  88 W6        29.95R
WALKER         CLOUDY    64  54  72 W15G22    30.01S
$$
MNZ012-019>021-037-252100-
   Northeast Minnesota

CITY           SKY/WX    TMP DP  RH WIND       PRES   REMARKS
DULUTH         PTSUNNY   67  54  63 W20G26    29.98R
ELY            CLOUDY    64  52  63 W15G21    29.93R
HIBBING        CLOUDY    63  53  70 W9        29.97R
EVELETH        PTSUNNY   64  51  62 W15       29.97S
DULUTH HARBOR  CLOUDY    70  55  60 W22       29.97S
TWO HARBORS    PTSUNNY   70  57  64 W16G24    29.94R
SILVER BAY     CLOUDY    70  55  60 W6        29.92S
G MARAIS ARPRT PTSUNNY   66  48  52 W9G20     29.91S
$$
MNZ029>031-032-039>041-046>048-054>057-064-252100-
   West Central Minnesota

CITY           SKY/WX    TMP DP  RH WIND       PRES   REMARKS
FERGUS FALLS   CLOUDY    64  55  72 W13       30.09R
WHEATON        PTSUNNY   68  55  64 W8        30.11S
MORRIS         PTSUNNY   68  54  60 W14       30.09S
ALEXANDRIA     CLOUDY    64  53  67 W15       30.10S
ELBOW LAKE     CLOUDY    64  55  72 NW10      30.10S
WADENA         PTSUNNY   64  54  68 W16G22    30.05S
GLENWOOD       MOSUNNY   66  55  68 W13       30.10S
APPLETON       CLOUDY    68  52  56 NW9G18    30.11R
BENSON         CLOUDY    66  52  59 NW12G18   30.11R
ORTONVILLE     CLOUDY    66  52  59 NW12      30.11S
MADISON        MOSUNNY   66  54  63 NW12      30.11S
WILLMAR        FAIR      70  55  60 NW14G20   30.12R
$$
MNZ033>034-036-042>043-049>051-058-059-252100-
   Central Minnesota

CITY           SKY/WX    TMP DP  RH WIND       PRES   REMARKS
ST CLOUD       CLOUDY    68  54  60 W12       30.07S
SAUK CENTRE    CLOUDY    64  54  69 W12       30.09S
PAYNESVILLE    PTSUNNY   65  52  63 W10       30.10S
AITKIN         CLOUDY    66  52  59 SW9       30.01F
PINE RIVER     PTSUNNY   66  55  68 W9        30.05S
BRAINERD       CLOUDY    65  54  67 SW14      30.04S
STAPLES        PTSUNNY   66  54  63 W15       30.05S
LONG PRAIRIE   CLOUDY    63  52  67 SW12      30.09R
LITTLE FALLS   CLOUDY    63  52  67 W8        30.07R
LITCHFIELD     MOSUNNY   72  57  60 W14       30.10R
BUFFALO        PTSUNNY   70  54  56 W13G18    30.08S
MAPLE LAKE     PTSUNNY   71  58  63 W10       30.08S
HUTCHINSON     SUNNY     71  59  65 W14       30.09F
$$
MNZ037-044-045-052-053-252100-
   East Central Minnesota

CITY           SKY/WX    TMP DP  RH WIND       PRES   REMARKS
PRINCETON      MOSUNNY   70  55  60 W13G20    30.06S
MORA           PTSUNNY   64  52  63 W10       30.06S
CAMBRIDGE      MOSUNNY   72  55  56 W12G18    30.04R
RUSH CITY      PTSUNNY   70  55  57 W10G20    30.04S
MOOSE LAKE     CLOUDY    64  52  63 W12G17    30.01R
HINCKLEY       CLOUDY    68  54  60 W15G24    30.04S
CLOQUET        CLOUDY    64  50  59 W16G23    30.00R
MCGREGOR       CLOUDY    63  52  67 W9G17     30.02S
$$
MNZ071>073-080-081-089-090-097-098-252100-
   Southwest Minnesota

CITY           SKY/WX    TMP DP  RH WIND       PRES   REMARKS
MONTEVIDEO     PTSUNNY   72  55  56 N10       30.13S
GRANITE FALLS  MOSUNNY   72  57  59 W16       30.13R
CANBY          MOSUNNY   71  54  56 NW15      30.13S
MARSHALL       SUNNY     71  55  56 NW14      30.12R
REDWOOD FALLS  MOSUNNY   72  56  57 W17       30.10S
OLIVIA         MOSUNNY   70  55  60 W12G18    30.09S
PIPESTONE      MOSUNNY   70  54  56 W16       30.15S
WINDOM         SUNNY     73  55  53 W13       30.12R
WORTHINGTON    SUNNY     71  58  63 W12G18    30.14S
JACKSON        MOSUNNY   72  54  53 W12       30.13S
TRACY          SUNNY     72  58  59 W7        30.13S
$$
MNZ065>067-074>077-082>085-091>093-252100-
   South Central Minnesota

CITY           SKY/WX    TMP DP  RH WIND       PRES   REMARKS
MANKATO        MOSUNNY   70  55  60 W12       30.10S
NEW ULM          N/A     70  57  64 W12       30.10S
ST JAMES       PTSUNNY   68  54  60 W8        30.12R
FAIRMONT       CLOUDY    73  56  54 W10       30.11F
GLENCOE        MOSUNNY   70  60  68 W10G16    30.08S
FARIBAULT      CLOUDY    72  57  60 W14       30.09S
OWATONNA       CLOUDY    72  57  60 W8        30.09S
WASECA         PTSUNNY   70  59  68 W10       30.11S
ALBERT LEA     MOSUNNY   73  59  60 W7        30.10S
$$
MNZ078>079-086>088-094>096-252100-
   Southeast Minnesota

CITY           SKY/WX    TMP DP  RH WIND       PRES   REMARKS
ROCHESTER      CLOUDY    75  60  59 W9        30.09S
RED WING       MOSUNNY   75  52  43 W15       30.04S
STANTON        CLOUDY    72  54  53 W13       30.06S
DODGE CENTER   CLOUDY    75  57  53 W13       30.09S
WINONA         PTSUNNY   77  57  50 W10       30.05S
AUSTIN         MOSUNNY   73  57  56 W6        30.09S
PRESTON        CLOUDY    73  59  61 W12       30.09S
$$
ABBREVIATIONS USED IN REMARKS
   TC - TEMPERATURES IN CELSIUS
  WCI - WIND CHILL INDEX
   HX - HEAT INDEX
  VSB - VISIBILITY
$$




USA.gov is the U.S. government's official web portal to all federal, state and local government web resources and services.